Location: Arcones
(41.1182°N, 3.7238°W)
Time: 03:26:13
(UTC+00:00)

Cosmos 2237 - Pass Details

Date: 11 December 2025
Orbit: 848 x 854 km, 70.8° (Epoch: 13 January)

Event Time Altitude Azimuth Distance (km) Brightness Sun altitude
Rises 19:27:20 0° 210° (SSW) 3,409 7.8 -29.4°
Reaches altitude 10° 19:29:48 10° 212° (SSW) 2,477 7.0 -29.9°
Enters shadow 19:35:10 67° 274° (W) 924 4.4 -30.9°
